GFSGBSN_500_temp_147.txt.gz
Temp
-11 -11 -11 -11 -11 -11 -11 -11 -11 -11 -11 -12 -11 -11 -11 -11 -11 -11 -11 -11 -10 -10 -10 -10 -10 -10 -10 -10 -10 -10 -10 -10 -10 -10 -10 -10 -10 -10 -10 -10 -10 -10 -10 -10 -10 -10 -11
-11 -12 -12 -12 -12 -12 -12 -12 -12 -12 -12 -12 -12 -11 -12 -12 -12 -12 -12 -11 -11 -11 -11 -11 -10 -10 -11 -11 -11 -11 -11 -10 -11 -10 -11 -11 -10 -10 -10 -11 -10 -10 -10 -10 -10 -11 -11
-12 -12 -12 -12 -12 -12 -12 -12 -12 -12 -12 -12 -12 -12 -12 -12 -12 -12 -12 -12 -12 -12 -12 -11 -11 -11 -11 -12 -11 -12 -11 -11 -11 -11 -11 -11 -11 -11 -11 -11 -11 -11 -11 -11 -11 -11 -10
-12 -12 -12 -12 -12 -12 -12 -12 -12 -12 -12 -12 -12 -12 -12 -12 -12 -12 -12 -12 -12 -12 -12 -11 -11 -11 -11 -12 -11 -12 -12 -12 -12 -12 -12 -12 -11 -11 -11 -11 -11 -11 -11 -11 -11 -10 -10
-13 -13 -13 -13 -13 -13 -12 -13 -13 -13 -12 -12 -12 -12 -12 -12 -12 -12 -11 -12 -12 -12 -11 -11 -11 -11 -12 -12 -12 -12 -12 -11 -11 -11 -11 -11 -12 -12 -12 -11 -11 -11 -11 -11 -11 -10 -10
-13 -13 -13 -13 -13 -13 -13 -13 -13 -13 -13 -12 -12 -12 -12 -12 -12 -12 -12 -12 -12 -12 -11 -12 -11 -12 -12 -12 -12 -12 -12 -12 -12 -12 -11 -11 -11 -12 -12 -12 -12 -12 -11 -11 -11 -11 -11
-13 -13 -13 -13 -13 -13 -13 -13 -13 -13 -13 -13 -12 -12 -12 -12 -13 -13 -12 -12 -12 -12 -12 -12 -10 -11 -12 -12 -12 -12 -12 -12 -12 -12 -12 -11 -11 -12 -12 -12 -12 -12 -11 -12 -12 -12 -11
-14 -14 -14 -14 -14 -14 -13 -13 -13 -13 -13 -14 -14 -13 -13 -13 -13 -13 -13 -12 -13 -13 -11 -11 -11 -10 -12 -12 -11 -12 -12 -12 -12 -12 -12 -11 -11 -12 -12 -12 -12 -12 -12 -12 -12 -12 -12
-15 -15 -14 -14 -14 -14 -14 -14 -13 -13 -13 -14 -14 -14 -13 -13 -13 -13 -13 -13 -14 -13 -12 -11 -12 -11 -13 -12 -11 -12 -12 -12 -12 -12 -12 -12 -12 -13 -12 -12 -12 -12 -12 -12 -12 -13 -12
-16 -16 -15 -15 -15 -15 -16 -16 -15 -15 -14 -15 -15 -14 -14 -14 -14 -13 -14 -13 -13 -13 -13 -11 -13 -13 -13 -12 -11 -12 -13 -12 -12 -12 -13 -11 -12 -12 -12 -12 -13 -12 -13 -13 -13 -12 -12
-18 -17 -17 -17 -16 -16 -16 -16 -16 -16 -15 -15 -16 -16 -15 -15 -14 -13 -14 -14 -14 -13 -13 -13 -12 -12 -12 -13 -12 -12 -13 -13 -12 -13 -13 -12 -12 -13 -13 -12 -13 -12 -13 -13 -13 -13 -12
-18 -18 -18 -18 -17 -17 -17 -16 -16 -16 -16 -16 -16 -17 -17 -16 -15 -14 -14 -15 -15 -15 -14 -13 -12 -12 -12 -13 -12 -12 -12 -13 -13 -13 -13 -12 -13 -13 -13 -13 -13 -13 -13 -13 -13 -13 -12
-18 -17 -17 -17 -18 -18 -18 -18 -18 -18 -17 -17 -16 -16 -16 -16 -16 -16 -16 -16 -16 -15 -15 -15 -14 -14 -14 -14 -14 -14 -13 -13 -13 -14 -13 -14 -13 -14 -14 -13 -14 -14 -13 -13 -14 -14 -13
-19 -19 -18 -18 -17 -18 -18 -18 -18 -18 -18 -19 -19 -18 -17 -16 -16 -16 -16 -16 -16 -16 -16 -16 -16 -15 -15 -16 -16 -16 -15 -15 -15 -15 -15 -15 -14 -14 -14 -14 -15 -15 -15 -15 -15 -15 -14
-21 -20 -20 -20 -20 -19 -19 -18 -19 -20 -19 -19 -19 -19 -18 -18 -18 -18 -18 -17 -16 -16 -16 -16 -16 -16 -16 -16 -16 -17 -16 -16 -16 -17 -16 -15 -14 -15 -15 -15 -16 -15 -15 -15 -16 -16 -16
-21 -21 -21 -21 -20 -20 -20 -20 -19 -20 -20 -21 -21 -21 -20 -20 -19 -19 -19 -18 -16 -16 -16 -17 -17 -16 -16 -17 -17 -17 -17 -16 -17 -17 -17 -16 -16 -16 -16 -16 -16 -16 -16 -17 -16 -16 -16
-22 -22 -21 -21 -21 -21 -21 -21 -21 -21 -21 -22 -23 -22 -21 -22 -21 -21 -20 -19 -18 -18 -18 -18 -18 -18 -17 -17 -18 -18 -18 -17 -17 -18 -18 -18 -17 -15 -16 -16 -16 -16 -16 -17 -16 -16 -16
-24 -23 -23 -23 -22 -22 -22 -22 -22 -22 -22 -24 -24 -23 -22 -23 -23 -22 -21 -20 -19 -19 -19 -19 -20 -19 -20 -19 -20 -20 -20 -19 -18 -18 -19 -19 -18 -18 -17 -17 -17 -17 -18 -18 -17 -17 -18
-26 -25 -25 -25 -24 -24 -24 -23 -23 -23 -24 -24 -24 -24 -24 -24 -24 -24 -22 -22 -21 -21 -21 -21 -21 -21 -21 -20 -21 -21 -20 -20 -19 -19 -19 -19 -19 -19 -18 -18 -19 -19 -18 -18 -18 -18 -18
-27 -27 -27 -26 -26 -26 -26 -25 -25 -25 -25 -25 -24 -25 -24 -24 -24 -24 -24 -23 -23 -22 -22 -23 -22 -22 -22 -21 -22 -21 -21 -21 -20 -20 -20 -20 -20 -19 -19 -19 -19 -19 -19 -19 -19 -19 -19
-29 -29 -28 -28 -28 -27 -27 -26 -26 -26 -25 -25 -25 -25 -25 -24 -24 -25 -25 -24 -24 -24 -23 -23 -23 -22 -23 -23 -22 -21 -21 -21 -20 -20 -20 -20 -20 -20 -19 -19 -20 -19 -19 -20 -20 -20 -20
-29 -29 -29 -29 -29 -29 -28 -28 -28 -27 -27 -26 -25 -25 -25 -25 -25 -25 -25 -25 -25 -24 -24 -24 -24 -24 -24 -24 -23 -22 -22 -21 -22 -22 -22 -21 -21 -21 -20 -20 -20 -20 -19 -20 -20 -20 -21
-30 -30 -29 -29 -29 -29 -29 -29 -29 -29 -28 -27 -27 -26 -26 -25 -26 -26 -25 -25 -25 -25 -25 -25 -25 -25 -25 -24 -24 -23 -23 -23 -22 -22 -23 -22 -22 -22 -22 -22 -22 -22 -20 -22 -22 -21 -22
-31 -31 -31 -31 -30 -30 -29 -29 -29 -29 -29 -28 -28 -28 -27 -26 -26 -26 -26 -26 -25 -25 -25 -26 -26 -26 -25 -25 -25 -24 -24 -24 -24 -24 -24 -23 -24 -24 -24 -24 -24 -22 -22 -22 -22 -22 -23
-31 -31 -31 -31 -31 -31 -31 -30 -30 -29 -29 -29 -29 -28 -28 -28 -27 -27 -27 -26 -26 -26 -26 -26 -26 -26 -26 -26 -26 -25 -25 -24 -24 -24 -24 -24 -25 -25 -25 -25 -25 -23 -23 -23 -23 -23 -23
-31 -31 -31 -31 -31 -31 -31 -31 -31 -31 -31 -30 -29 -29 -29 -29 -28 -27 -27 -27 -26 -26 -26 -26 -26 -26 -26 -26 -26 -26 -25 -25 -25 -25 -25 -25 -25 -26 -26 -26 -25 -24 -24 -24 -24 -24 -23
-31 -31 -31 -31 -31 -31 -31 -31 -31 -31 -32 -31 -31 -30 -29 -29 -28 -27 -27 -27 -27 -26 -26 -26 -26 -26 -26 -26 -26 -26 -25 -25 -25 -25 -26 -26 -26 -26 -26 -26 -25 -24 -25 -25 -25 -24 -24
-31 -31 -32 -31 -32 -32 -32 -32 -32 -32 -32 -32 -31 -31 -30 -29 -28 -28 -28 -27 -27 -26 -26 -26 -26 -26 -26 -26 -26 -26 -25 -25 -26 -26 -26 -26 -26 -26 -26 -26 -25 -25 -26 -26 -25 -25 -25
-31 -32 -32 -32 -32 -32 -32 -32 -32 -32 -32 -33 -32 -31 -31 -30 -29 -28 -28 -28 -27 -27 -27 -27 -26 -26 -26 -26 -26 -26 -25 -25 -26 -26 -26 -26 -26 -26 -26 -26 -26 -26 -26 -26 -26 -26 -26

GFSGBSN_500_temp_153.txt.gz
Temp
-11 -11 -11 -11 -11 -11 -11 -11 -10 -10 -10 -10 -10 -10 -10 -10 -10 -10 -10 -10 -10 -9 -9 -9 -10 -10 -10 -10 -10 -10 -11 -10 -11 -11 -11 -10 -10 -11 -10 -10 -10 -10 -10 -10 -10 -10 -10
-12 -12 -12 -12 -11 -11 -12 -11 -11 -11 -10 -10 -10 -10 -10 -10 -10 -10 -11 -11 -10 -10 -10 -10 -10 -10 -10 -11 -10 -11 -11 -11 -11 -11 -11 -11 -11 -11 -11 -11 -11 -10 -10 -10 -11 -11 -11
-12 -13 -13 -12 -12 -12 -12 -12 -13 -12 -11 -11 -10 -10 -11 -11 -11 -11 -11 -11 -11 -10 -10 -10 -10 -10 -10 -11 -10 -11 -11 -11 -11 -11 -11 -11 -12 -12 -11 -11 -11 -11 -11 -11 -11 -11 -11
-12 -13 -12 -12 -12 -12 -12 -12 -13 -12 -12 -11 -11 -11 -11 -11 -12 -11 -11 -11 -11 -10 -10 -10 -10 -10 -10 -11 -11 -11 -11 -11 -11 -11 -11 -12 -12 -12 -12 -12 -11 -11 -11 -11 -11 -11 -11
-13 -13 -13 -13 -13 -13 -12 -12 -12 -12 -12 -12 -11 -11 -11 -11 -12 -12 -12 -11 -11 -11 -11 -10 -10 -10 -11 -12 -11 -11 -11 -11 -12 -11 -12 -11 -12 -12 -12 -12 -11 -11 -11 -11 -11 -11 -11
-13 -13 -13 -13 -13 -13 -13 -12 -12 -12 -12 -12 -12 -12 -12 -12 -12 -12 -11 -12 -12 -11 -11 -11 -11 -11 -11 -12 -12 -11 -11 -11 -11 -11 -12 -11 -12 -12 -12 -12 -11 -11 -10 -11 -11 -11 -11
-14 -14 -14 -13 -13 -13 -13 -13 -13 -13 -12 -13 -12 -12 -12 -12 -12 -12 -12 -12 -12 -12 -11 -11 -11 -10 -11 -12 -12 -12 -11 -11 -11 -12 -12 -12 -12 -12 -13 -12 -11 -11 -10 -10 -12 -12 -10
-14 -14 -14 -14 -14 -13 -13 -13 -13 -13 -13 -13 -12 -13 -13 -12 -12 -12 -12 -13 -12 -12 -11 -11 -11 -10 -12 -12 -11 -12 -12 -12 -12 -11 -11 -11 -11 -13 -13 -12 -12 -11 -11 -11 -12 -12 -10
-15 -14 -14 -14 -15 -14 -14 -14 -14 -14 -13 -14 -13 -13 -13 -13 -12 -12 -13 -12 -13 -12 -12 -11 -11 -11 -12 -12 -11 -12 -12 -12 -12 -11 -11 -11 -11 -12 -12 -12 -12 -12 -12 -12 -12 -12 -11
-16 -16 -15 -15 -15 -15 -15 -15 -15 -14 -14 -14 -14 -14 -13 -13 -13 -13 -13 -13 -12 -12 -12 -11 -11 -11 -12 -12 -11 -13 -13 -12 -12 -12 -12 -11 -12 -12 -12 -12 -13 -12 -13 -12 -12 -12 -11
-17 -16 -16 -17 -17 -16 -15 -16 -16 -16 -15 -15 -15 -14 -14 -14 -14 -14 -14 -14 -13 -13 -12 -12 -11 -11 -12 -12 -12 -12 -13 -13 -12 -12 -13 -12 -12 -12 -12 -13 -13 -13 -13 -13 -12 -13 -12
-18 -17 -16 -17 -17 -17 -17 -16 -17 -17 -16 -16 -15 -16 -15 -15 -15 -15 -15 -14 -15 -15 -12 -12 -11 -12 -12 -13 -13 -12 -13 -13 -13 -13 -13 -12 -13 -13 -13 -13 -13 -13 -13 -14 -14 -13 -12
-20 -19 -18 -18 -18 -17 -18 -17 -18 -18 -17 -16 -16 -15 -16 -16 -16 -16 -16 -15 -16 -14 -14 -13 -13 -13 -13 -13 -13 -14 -14 -14 -14 -14 -13 -14 -13 -13 -13 -13 -13 -14 -14 -14 -14 -14 -13
-20 -20 -20 -19 -19 -19 -18 -18 -18 -18 -18 -18 -17 -17 -17 -17 -17 -16 -16 -16 -15 -14 -15 -15 -15 -15 -14 -14 -14 -14 -14 -15 -15 -15 -14 -13 -13 -14 -14 -14 -15 -14 -14 -14 -15 -15 -13
-21 -21 -21 -20 -20 -20 -20 -20 -20 -20 -20 -19 -20 -20 -19 -20 -19 -19 -19 -18 -14 -14 -15 -16 -16 -17 -16 -16 -16 -16 -15 -15 -15 -15 -15 -15 -14 -14 -15 -15 -15 -15 -15 -16 -16 -15 -15
-22 -22 -21 -21 -21 -21 -20 -20 -21 -21 -20 -20 -21 -20 -20 -20 -20 -20 -20 -19 -17 -16 -16 -16 -16 -17 -16 -16 -17 -16 -16 -15 -15 -16 -16 -16 -15 -15 -15 -16 -16 -16 -17 -17 -16 -16 -16
-23 -23 -22 -22 -22 -22 -22 -21 -21 -21 -21 -21 -22 -22 -21 -21 -21 -20 -20 -19 -19 -19 -18 -18 -18 -18 -18 -18 -18 -17 -17 -16 -16 -15 -16 -16 -16 -15 -15 -16 -17 -17 -17 -17 -17 -17 -17
-23 -23 -23 -23 -23 -23 -22 -22 -22 -22 -22 -22 -22 -22 -22 -22 -22 -22 -21 -20 -20 -20 -20 -19 -19 -19 -19 -19 -19 -18 -18 -18 -18 -17 -17 -18 -17 -16 -16 -17 -17 -17 -17 -17 -17 -17 -17
-25 -24 -24 -24 -23 -23 -23 -23 -23 -23 -22 -22 -23 -23 -22 -22 -23 -22 -22 -21 -21 -21 -21 -21 -20 -20 -20 -20 -20 -20 -19 -19 -19 -19 -19 -19 -19 -19 -18 -19 -19 -19 -18 -18 -18 -18 -18
-26 -25 -25 -25 -24 -24 -24 -24 -24 -23 -23 -23 -23 -24 -24 -24 -24 -23 -23 -23 -23 -22 -22 -23 -22 -22 -21 -21 -21 -20 -21 -21 -21 -21 -20 -20 -20 -20 -20 -19 -19 -20 -19 -19 -19 -19 -19
-28 -27 -27 -26 -26 -25 -25 -25 -25 -24 -24 -24 -24 -24 -24 -24 -24 -24 -24 -24 -23 -23 -23 -23 -23 -23 -22 -22 -22 -22 -23 -22 -22 -21 -21 -21 -21 -21 -20 -20 -20 -21 -20 -20 -20 -20 -20
-29 -29 -29 -28 -28 -28 -27 -27 -27 -26 -26 -25 -25 -25 -25 -24 -24 -25 -25 -24 -24 -24 -24 -24 -24 -24 -24 -23 -23 -23 -23 -23 -22 -22 -22 -21 -21 -21 -21 -21 -21 -21 -20 -21 -21 -21 -21
-29 -29 -29 -29 -29 -29 -29 -29 -28 -28 -28 -27 -27 -26 -26 -25 -25 -25 -26 -25 -25 -25 -25 -25 -25 -25 -24 -24 -24 -24 -23 -23 -23 -23 -23 -23 -22 -22 -22 -22 -23 -22 -21 -21 -22 -22 -22
-30 -30 -30 -30 -30 -30 -30 -29 -29 -29 -29 -29 -28 -28 -28 -27 -26 -25 -26 -26 -25 -26 -25 -25 -25 -25 -25 -25 -25 -24 -24 -24 -23 -23 -23 -23 -23 -23 -23 -23 -23 -23 -22 -22 -23 -23 -24
-30 -30 -30 -30 -30 -30 -30 -30 -29 -29 -29 -29 -29 -29 -29 -28 -28 -27 -26 -26 -26 -26 -26 -25 -25 -25 -25 -25 -25 -25 -25 -25 -24 -25 -24 -24 -25 -24 -25 -24 -24 -22 -23 -24 -24 -23 -24
-30 -30 -30 -30 -31 -31 -31 -31 -31 -31 -31 -31 -31 -30 -29 -29 -28 -28 -28 -27 -26 -26 -26 -26 -26 -26 -26 -26 -25 -25 -25 -25 -25 -25 -24 -24 -25 -25 -25 -25 -25 -23 -24 -25 -25 -24 -25
-30 -31 -31 -31 -31 -31 -31 -31 -31 -31 -31 -31 -31 -31 -31 -31 -29 -29 -29 -28 -28 -27 -27 -26 -26 -26 -27 -26 -26 -26 -26 -25 -25 -24 -24 -25 -25 -25 -26 -26 -25 -25 -25 -25 -25 -25 -25
-30 -30 -31 -31 -31 -31 -31 -31 -31 -31 -31 -31 -31 -31 -31 -31 -31 -31 -30 -29 -29 -29 -28 -28 -27 -27 -26 -27 -27 -26 -26 -26 -25 -25 -25 -25 -25 -25 -26 -26 -26 -26 -26 -25 -26 -26 -26
-31 -31 -31 -31 -31 -31 -31 -31 -31 -31 -32 -31 -31 -32 -32 -32 -31 -31 -31 -30 -29 -29 -29 -29 -28 -27 -27 -27 -27 -26 -26 -26 -25 -25 -26 -26 -26 -26 -26 -26 -26 -26 -26 -26 -26 -26 -26

GFSGBSN_500_temp_156.txt.gz
Temp
-11 -10 -10 -10 -10 -10 -10 -10 -10 -10 -10 -10 -10 -9 -10 -10 -9 -9 -9 -9 -9 -9 -9 -8 -8 -8 -8 -10 -10 -10 -10 -10 -10 -10 -10 -10 -10 -11 -11 -10 -10 -10 -10 -10 -10 -10 -10
-11 -11 -11 -11 -11 -11 -11 -11 -11 -11 -11 -11 -10 -10 -10 -10 -10 -10 -10 -10 -10 -10 -9 -9 -9 -9 -8 -10 -10 -11 -10 -10 -10 -10 -10 -10 -10 -11 -10 -10 -10 -11 -11 -11 -10 -10 -10
-12 -12 -12 -12 -12 -12 -12 -12 -12 -11 -11 -11 -11 -10 -11 -10 -10 -11 -10 -10 -10 -10 -10 -10 -10 -10 -8 -11 -10 -10 -10 -9 -10 -10 -10 -10 -10 -11 -11 -10 -11 -11 -11 -11 -11 -11 -11
-12 -12 -13 -14 -13 -12 -13 -12 -12 -12 -12 -12 -12 -12 -11 -11 -11 -11 -11 -11 -10 -10 -10 -10 -10 -9 -9 -11 -10 -10 -10 -10 -11 -10 -10 -11 -11 -11 -11 -11 -11 -11 -11 -11 -11 -12 -11
-13 -13 -13 -13 -13 -13 -13 -12 -12 -12 -12 -12 -12 -12 -12 -11 -11 -12 -11 -11 -11 -11 -10 -10 -9 -9 -9 -11 -11 -11 -10 -11 -11 -11 -10 -10 -11 -11 -11 -11 -11 -11 -12 -12 -12 -12 -11
-13 -13 -13 -13 -13 -13 -13 -12 -13 -12 -12 -12 -12 -12 -11 -11 -12 -12 -12 -11 -11 -11 -10 -10 -10 -10 -10 -11 -12 -11 -11 -11 -11 -11 -10 -10 -11 -11 -11 -11 -11 -11 -11 -11 -12 -12 -12
-13 -13 -13 -13 -13 -13 -13 -13 -13 -12 -13 -13 -12 -12 -12 -12 -12 -12 -12 -12 -12 -11 -11 -11 -10 -10 -10 -11 -11 -12 -12 -12 -11 -11 -11 -10 -11 -12 -12 -11 -11 -11 -11 -11 -12 -12 -11
-13 -13 -13 -13 -14 -13 -13 -13 -14 -13 -13 -13 -13 -13 -13 -12 -12 -12 -12 -12 -12 -12 -11 -11 -11 -10 -11 -11 -11 -12 -13 -12 -12 -12 -11 -11 -11 -13 -12 -11 -11 -11 -11 -11 -12 -12 -11
-14 -14 -14 -13 -14 -14 -14 -13 -13 -14 -14 -14 -14 -14 -13 -13 -12 -13 -13 -13 -12 -12 -11 -11 -12 -11 -12 -11 -11 -12 -12 -12 -12 -12 -11 -11 -11 -12 -12 -12 -11 -12 -11 -11 -11 -12 -11
-15 -15 -15 -15 -14 -14 -14 -14 -14 -14 -14 -14 -14 -14 -14 -14 -13 -13 -13 -13 -13 -13 -12 -11 -12 -11 -12 -11 -11 -12 -12 -12 -12 -12 -12 -11 -12 -12 -12 -12 -12 -12 -12 -12 -11 -11 -11
-17 -16 -16 -15 -15 -15 -14 -14 -15 -15 -15 -15 -14 -14 -14 -14 -14 -14 -14 -14 -13 -13 -12 -11 -11 -11 -11 -12 -12 -12 -12 -12 -12 -12 -12 -11 -11 -12 -12 -12 -12 -12 -12 -12 -12 -12 -12
-19 -18 -17 -16 -16 -16 -16 -16 -16 -15 -15 -15 -15 -16 -16 -15 -15 -15 -15 -15 -15 -15 -12 -12 -12 -12 -12 -12 -12 -12 -13 -12 -13 -12 -12 -12 -12 -12 -12 -12 -13 -13 -13 -13 -13 -13 -12
-20 -19 -18 -18 -17 -17 -16 -16 -17 -17 -17 -17 -16 -16 -16 -16 -15 -16 -16 -16 -16 -15 -14 -13 -13 -13 -13 -13 -13 -13 -14 -13 -13 -13 -13 -13 -13 -13 -12 -13 -13 -13 -14 -14 -13 -13 -12
-19 -19 -20 -19 -18 -19 -18 -18 -17 -18 -18 -18 -18 -17 -18 -17 -17 -16 -17 -17 -16 -15 -15 -15 -15 -15 -15 -15 -15 -15 -14 -14 -14 -14 -13 -13 -13 -13 -13 -14 -14 -13 -14 -14 -14 -14 -13
-21 -20 -20 -19 -19 -19 -19 -19 -19 -19 -19 -19 -19 -18 -18 -17 -17 -18 -18 -17 -15 -15 -14 -15 -16 -16 -16 -16 -16 -16 -15 -14 -13 -14 -14 -14 -14 -13 -14 -14 -15 -15 -14 -15 -16 -15 -15
-21 -21 -21 -20 -19 -19 -19 -19 -19 -19 -20 -19 -19 -19 -19 -19 -18 -19 -18 -18 -17 -16 -15 -16 -17 -18 -18 -17 -17 -16 -16 -15 -15 -15 -15 -15 -15 -15 -15 -15 -16 -16 -15 -16 -16 -16 -16
-22 -22 -22 -22 -21 -20 -21 -21 -21 -21 -21 -21 -21 -21 -20 -21 -21 -21 -20 -18 -19 -18 -19 -19 -19 -19 -19 -18 -19 -18 -17 -16 -15 -15 -16 -16 -16 -15 -15 -16 -16 -16 -16 -16 -16 -16 -17
-23 -23 -23 -23 -22 -22 -22 -22 -22 -22 -22 -22 -22 -23 -22 -22 -23 -22 -21 -21 -20 -20 -20 -20 -19 -20 -20 -20 -19 -20 -19 -18 -17 -17 -17 -17 -17 -17 -17 -17 -17 -17 -17 -17 -17 -17 -17
-25 -24 -24 -23 -23 -23 -23 -23 -23 -23 -22 -23 -23 -23 -23 -23 -23 -22 -22 -22 -21 -21 -21 -21 -20 -20 -20 -20 -20 -20 -20 -19 -19 -19 -19 -19 -19 -19 -19 -19 -19 -19 -19 -19 -19 -18 -18
-26 -25 -25 -24 -24 -24 -24 -23 -23 -23 -23 -23 -23 -24 -23 -23 -23 -23 -22 -23 -22 -22 -22 -22 -21 -21 -21 -20 -21 -21 -21 -20 -20 -20 -20 -20 -20 -21 -20 -20 -20 -20 -19 -19 -19 -19 -19
-27 -27 -27 -26 -25 -25 -25 -25 -24 -24 -24 -24 -24 -23 -23 -24 -24 -24 -23 -23 -23 -23 -23 -23 -22 -22 -22 -22 -22 -22 -22 -21 -21 -21 -21 -21 -21 -21 -21 -21 -20 -20 -20 -20 -20 -20 -20
-28 -28 -28 -27 -27 -26 -26 -25 -25 -25 -25 -25 -24 -24 -24 -23 -24 -24 -24 -24 -23 -23 -23 -23 -23 -23 -23 -23 -23 -23 -23 -23 -22 -22 -22 -21 -21 -21 -21 -21 -21 -21 -21 -21 -20 -21 -21
-29 -29 -29 -29 -28 -28 -28 -27 -27 -26 -26 -25 -25 -25 -25 -24 -23 -24 -25 -24 -24 -24 -24 -24 -23 -23 -24 -23 -24 -24 -24 -23 -22 -22 -22 -22 -22 -22 -22 -22 -23 -21 -21 -21 -21 -22 -23
-30 -30 -29 -29 -29 -29 -29 -29 -29 -28 -28 -28 -27 -27 -26 -25 -25 -24 -24 -24 -25 -25 -25 -25 -24 -24 -24 -24 -24 -24 -24 -24 -23 -23 -23 -23 -23 -23 -23 -23 -23 -22 -21 -22 -23 -23 -23
-30 -30 -30 -30 -30 -30 -30 -30 -30 -29 -29 -29 -29 -29 -28 -28 -27 -27 -26 -25 -25 -25 -26 -26 -26 -25 -25 -25 -25 -25 -25 -25 -24 -24 -24 -24 -24 -24 -24 -23 -23 -22 -23 -23 -23 -23 -24
-30 -30 -30 -30 -30 -30 -30 -30 -30 -30 -29 -29 -29 -29 -29 -29 -28 -28 -28 -27 -27 -26 -26 -26 -26 -26 -25 -25 -25 -25 -25 -25 -25 -24 -24 -24 -24 -24 -24 -24 -24 -23 -24 -24 -25 -24 -24
-30 -30 -30 -30 -30 -30 -30 -30 -30 -31 -30 -31 -31 -31 -30 -30 -30 -29 -29 -29 -28 -28 -27 -26 -26 -26 -26 -26 -26 -26 -26 -26 -26 -25 -24 -25 -25 -25 -24 -25 -25 -24 -25 -25 -25 -25 -25
-30 -30 -30 -31 -31 -31 -31 -31 -31 -31 -31 -31 -31 -31 -31 -31 -31 -31 -31 -31 -30 -29 -28 -27 -28 -26 -27 -27 -26 -26 -26 -26 -26 -25 -25 -25 -25 -25 -25 -25 -25 -25 -26 -26 -26 -25 -26
-31 -31 -31 -31 -31 -31 -31 -31 -31 -31 -31 -31 -31 -31 -31 -31 -31 -31 -31 -31 -31 -31 -30 -29 -29 -27 -28 -27 -26 -26 -26 -26 -26 -26 -26 -25 -25 -25 -25 -25 -25 -25 -26 -26 -26 -26 -26

GFSGBSN_500_temp_162.txt.gz
Temp
-11 -10 -10 -10 -10 -10 -10 -9 -9 -9 -9 -9 -9 -9 -9 -9 -9 -9 -9 -9 -9 -8 -8 -8 -8 -8 -9 -8 -9 -7 -8 -8 -8 -8 -9 -9 -8 -8 -9 -9 -9 -9 -9 -9 -9 -9 -9
-13 -12 -11 -10 -10 -10 -10 -10 -10 -10 -10 -10 -9 -9 -9 -9 -9 -9 -9 -10 -9 -9 -9 -9 -9 -9 -8 -9 -9 -8 -9 -9 -9 -9 -9 -9 -9 -8 -8 -8 -8 -9 -9 -9 -9 -9 -9
-12 -12 -12 -11 -11 -11 -11 -10 -10 -10 -10 -10 -10 -10 -10 -9 -10 -10 -10 -10 -10 -10 -10 -10 -10 -9 -9 -10 -9 -9 -9 -9 -9 -9 -9 -9 -9 -9 -9 -9 -9 -9 -9 -9 -9 -10 -10
-12 -12 -12 -12 -12 -11 -11 -11 -11 -11 -10 -10 -10 -10 -10 -10 -10 -10 -10 -10 -10 -10 -10 -10 -10 -10 -8 -10 -10 -10 -10 -9 -10 -10 -9 -9 -9 -9 -9 -9 -9 -10 -9 -9 -10 -10 -9
-12 -13 -13 -12 -12 -13 -13 -12 -13 -12 -11 -11 -10 -10 -10 -10 -11 -11 -11 -11 -10 -11 -11 -11 -10 -10 -9 -10 -10 -10 -10 -10 -10 -10 -10 -9 -9 -9 -9 -9 -9 -10 -9 -10 -10 -11 -11
-13 -13 -13 -13 -13 -12 -12 -12 -13 -13 -12 -11 -11 -11 -11 -11 -11 -11 -11 -11 -10 -11 -11 -11 -10 -10 -10 -10 -10 -10 -10 -10 -10 -10 -10 -10 -10 -10 -10 -9 -9 -11 -11 -11 -11 -12 -11
-13 -13 -13 -13 -13 -13 -13 -13 -13 -13 -12 -12 -12 -11 -11 -11 -10 -11 -12 -12 -11 -11 -11 -10 -10 -10 -10 -10 -10 -10 -10 -11 -10 -10 -10 -10 -10 -10 -10 -10 -10 -11 -11 -11 -11 -12 -11
-15 -14 -14 -14 -13 -13 -13 -13 -13 -13 -13 -13 -13 -12 -11 -11 -11 -11 -11 -12 -13 -11 -10 -10 -10 -9 -10 -12 -9 -10 -11 -11 -11 -10 -11 -10 -9 -11 -11 -11 -10 -10 -11 -11 -11 -12 -12
-15 -15 -15 -14 -14 -14 -14 -14 -13 -13 -13 -13 -13 -13 -13 -13 -12 -12 -12 -13 -13 -12 -11 -9 -10 -11 -11 -11 -10 -10 -11 -11 -11 -11 -11 -11 -10 -10 -11 -11 -11 -11 -11 -11 -11 -11 -11
-15 -15 -15 -15 -15 -14 -14 -13 -14 -14 -14 -13 -13 -13 -13 -13 -13 -13 -13 -13 -13 -13 -12 -10 -11 -10 -11 -12 -10 -11 -12 -11 -11 -11 -11 -10 -11 -11 -11 -11 -12 -11 -12 -11 -11 -11 -9
-16 -16 -16 -16 -15 -16 -15 -14 -14 -13 -14 -14 -14 -14 -14 -14 -14 -14 -14 -14 -14 -14 -14 -12 -11 -11 -12 -12 -12 -11 -12 -12 -11 -12 -12 -10 -12 -12 -11 -11 -12 -11 -13 -13 -12 -10 -10
-17 -16 -16 -16 -16 -16 -16 -15 -15 -14 -13 -13 -14 -15 -15 -14 -14 -14 -15 -15 -15 -15 -14 -14 -12 -12 -12 -12 -12 -12 -12 -12 -12 -12 -12 -11 -12 -12 -11 -11 -11 -12 -13 -13 -13 -12 -11
-17 -17 -17 -17 -16 -17 -17 -16 -16 -15 -15 -15 -14 -14 -15 -15 -14 -14 -15 -15 -16 -15 -15 -15 -14 -14 -14 -14 -14 -14 -13 -13 -13 -13 -13 -13 -12 -13 -12 -11 -12 -12 -13 -13 -13 -13 -10
-19 -19 -18 -18 -17 -17 -17 -17 -17 -16 -16 -16 -15 -15 -15 -14 -14 -15 -15 -17 -17 -15 -16 -16 -15 -14 -15 -15 -15 -15 -14 -14 -15 -14 -14 -13 -13 -14 -14 -13 -13 -13 -14 -14 -14 -14 -12
-21 -19 -19 -19 -19 -19 -18 -18 -18 -18 -18 -17 -16 -16 -16 -16 -17 -16 -17 -17 -17 -16 -17 -16 -16 -15 -15 -15 -15 -15 -15 -16 -16 -15 -15 -15 -15 -15 -15 -14 -13 -14 -15 -15 -15 -14 -14
-22 -21 -20 -19 -18 -19 -18 -19 -18 -18 -18 -18 -18 -18 -17 -18 -18 -18 -18 -17 -16 -17 -17 -17 -17 -17 -16 -17 -17 -16 -16 -16 -16 -17 -16 -15 -14 -15 -15 -14 -15 -15 -16 -16 -16 -15 -15
-22 -22 -20 -20 -19 -19 -18 -18 -19 -19 -19 -19 -20 -19 -19 -19 -18 -19 -18 -17 -18 -18 -17 -17 -17 -17 -17 -17 -17 -17 -17 -17 -16 -17 -16 -15 -16 -15 -17 -15 -16 -17 -17 -17 -17 -16 -16
-23 -23 -22 -21 -20 -19 -20 -19 -19 -19 -19 -20 -19 -19 -19 -19 -19 -19 -18 -18 -18 -17 -17 -17 -17 -18 -18 -18 -18 -17 -17 -18 -16 -17 -17 -17 -17 -16 -17 -17 -17 -17 -18 -17 -18 -17 -17
-24 -24 -23 -22 -22 -21 -20 -20 -20 -20 -19 -20 -20 -19 -20 -21 -20 -21 -18 -18 -18 -18 -19 -18 -19 -19 -19 -19 -19 -17 -18 -20 -18 -18 -18 -18 -18 -18 -18 -18 -19 -18 -19 -18 -18 -18 -18
-26 -25 -25 -24 -24 -23 -23 -22 -22 -21 -21 -21 -21 -21 -22 -22 -21 -21 -21 -20 -20 -19 -20 -21 -20 -19 -20 -19 -20 -19 -19 -21 -19 -19 -19 -20 -20 -19 -18 -19 -19 -19 -18 -19 -19 -19 -19
-26 -26 -26 -26 -25 -25 -25 -24 -23 -23 -23 -23 -23 -23 -23 -23 -23 -22 -22 -22 -21 -19 -20 -21 -21 -21 -21 -21 -21 -21 -21 -22 -20 -20 -20 -21 -20 -20 -20 -20 -20 -20 -20 -20 -20 -19 -20
-27 -26 -26 -26 -26 -26 -26 -26 -25 -24 -24 -24 -24 -24 -23 -23 -23 -23 -23 -22 -22 -22 -22 -22 -22 -23 -22 -22 -22 -22 -22 -22 -22 -21 -20 -21 -21 -21 -21 -21 -21 -21 -21 -20 -20 -20 -20
-28 -27 -27 -27 -27 -27 -26 -26 -26 -26 -26 -25 -25 -25 -25 -24 -23 -23 -23 -23 -23 -23 -23 -23 -23 -23 -23 -22 -23 -23 -22 -23 -22 -22 -22 -21 -21 -21 -21 -21 -22 -22 -20 -21 -21 -21 -21
-28 -28 -28 -28 -28 -28 -28 -27 -27 -27 -26 -26 -26 -26 -26 -25 -24 -24 -23 -24 -24 -24 -23 -24 -23 -23 -23 -23 -23 -23 -23 -23 -23 -22 -22 -22 -22 -22 -22 -22 -23 -21 -22 -21 -22 -22 -23
-29 -29 -29 -29 -29 -29 -29 -29 -28 -28 -27 -27 -27 -27 -26 -26 -25 -25 -25 -24 -24 -23 -23 -24 -24 -24 -23 -23 -24 -24 -24 -23 -23 -22 -22 -22 -22 -22 -23 -22 -22 -23 -21 -22 -23 -23 -23
-30 -30 -30 -29 -29 -29 -29 -29 -29 -29 -29 -28 -28 -28 -27 -26 -26 -26 -26 -26 -25 -25 -24 -24 -24 -24 -25 -24 -24 -25 -24 -24 -24 -24 -23 -23 -23 -23 -23 -23 -22 -22 -22 -22 -24 -23 -23
-30 -30 -30 -30 -30 -30 -30 -30 -30 -30 -30 -30 -29 -30 -29 -28 -29 -28 -28 -27 -27 -27 -25 -25 -25 -25 -24 -24 -25 -25 -25 -25 -25 -25 -24 -23 -23 -23 -23 -23 -23 -22 -22 -24 -24 -23 -24
-30 -30 -30 -30 -30 -30 -30 -30 -30 -30 -30 -30 -30 -30 -30 -29 -29 -29 -29 -29 -29 -29 -29 -28 -27 -26 -27 -26 -26 -25 -25 -25 -26 -25 -25 -24 -25 -24 -24 -24 -23 -22 -23 -24 -23 -24 -24
-31 -30 -30 -30 -30 -30 -30 -30 -30 -30 -30 -30 -30 -30 -30 -30 -29 -30 -30 -30 -30 -30 -30 -29 -29 -28 -28 -29 -29 -29 -28 -26 -25 -26 -26 -25 -25 -24 -25 -24 -24 -23 -24 -24 -25 -24 -24

GFSGBSN_500_temp_165.txt.gz
Temp
-11 -11 -10 -10 -9 -9 -9 -9 -9 -10 -9 -9 -9 -9 -9 -9 -9 -9 -9 -8 -8 -8 -8 -8 -8 -8 -8 -8 -9 -8 -8 -8 -9 -9 -9 -9 -8 -8 -8 -8 -9 -8 -8 -8 -8 -8 -9
-12 -12 -12 -11 -11 -10 -10 -10 -10 -10 -10 -9 -9 -10 -9 -9 -9 -9 -9 -9 -9 -9 -9 -9 -9 -9 -8 -9 -9 -9 -9 -9 -9 -9 -9 -9 -9 -9 -8 -8 -9 -9 -8 -8 -8 -8 -9
-12 -12 -12 -13 -12 -12 -11 -10 -10 -10 -10 -10 -10 -9 -10 -9 -9 -9 -9 -9 -9 -9 -9 -8 -9 -8 -8 -9 -9 -9 -9 -10 -10 -9 -9 -10 -9 -9 -9 -8 -9 -8 -8 -8 -8 -9 -9
-12 -12 -13 -12 -12 -12 -12 -12 -11 -11 -11 -11 -11 -11 -10 -10 -10 -10 -9 -10 -9 -10 -9 -9 -9 -9 -7 -10 -9 -10 -10 -10 -10 -10 -10 -10 -10 -9 -9 -9 -9 -8 -8 -8 -10 -9 -9
-12 -12 -12 -12 -12 -13 -12 -12 -12 -12 -12 -11 -11 -11 -10 -11 -10 -10 -10 -10 -10 -10 -10 -10 -9 -9 -8 -10 -10 -10 -11 -11 -12 -11 -10 -10 -10 -9 -9 -10 -9 -9 -9 -9 -9 -10 -9
-12 -12 -12 -12 -12 -12 -12 -12 -12 -12 -12 -12 -12 -12 -11 -10 -10 -11 -11 -11 -10 -10 -10 -10 -10 -10 -9 -10 -10 -11 -11 -11 -11 -11 -10 -11 -10 -9 -10 -10 -9 -10 -9 -9 -10 -10 -10
-13 -12 -12 -12 -12 -12 -12 -13 -13 -12 -13 -12 -12 -12 -12 -12 -12 -12 -12 -12 -11 -11 -10 -10 -10 -10 -10 -10 -11 -11 -11 -10 -10 -10 -10 -10 -9 -8 -11 -11 -10 -10 -10 -10 -10 -11 -11
-13 -13 -13 -13 -12 -12 -13 -13 -13 -13 -13 -12 -13 -13 -13 -13 -12 -13 -12 -12 -12 -11 -11 -11 -10 -10 -10 -12 -9 -9 -11 -10 -11 -10 -10 -10 -8 -10 -11 -11 -10 -11 -10 -10 -10 -11 -12
-13 -13 -13 -14 -14 -13 -13 -13 -13 -13 -13 -13 -13 -13 -13 -13 -13 -13 -12 -13 -12 -12 -12 -10 -10 -10 -11 -11 -9 -10 -10 -10 -10 -11 -11 -10 -10 -10 -11 -11 -11 -11 -11 -11 -10 -11 -12
-14 -14 -14 -14 -14 -14 -14 -14 -14 -14 -14 -14 -14 -14 -14 -13 -13 -13 -13 -13 -13 -13 -13 -10 -11 -10 -11 -11 -10 -11 -11 -11 -11 -11 -11 -10 -10 -11 -11 -11 -12 -11 -12 -12 -11 -11 -11
-15 -14 -14 -14 -14 -14 -13 -13 -13 -13 -13 -14 -13 -13 -13 -14 -14 -14 -14 -14 -14 -14 -14 -12 -11 -11 -11 -11 -12 -11 -11 -11 -11 -12 -12 -10 -11 -12 -11 -12 -13 -11 -13 -12 -12 -11 -11
-16 -15 -15 -15 -15 -15 -15 -15 -14 -15 -14 -15 -14 -14 -14 -14 -14 -14 -14 -14 -15 -15 -14 -14 -12 -12 -13 -12 -12 -12 -12 -12 -12 -12 -12 -11 -12 -12 -11 -12 -12 -12 -12 -12 -13 -12 -10
-17 -16 -16 -16 -16 -16 -16 -16 -16 -15 -15 -15 -14 -15 -15 -15 -14 -14 -14 -15 -15 -15 -15 -14 -14 -13 -13 -13 -14 -13 -14 -13 -13 -13 -13 -13 -13 -13 -13 -12 -13 -13 -13 -14 -14 -14 -10
-18 -17 -17 -16 -16 -16 -16 -17 -16 -16 -16 -16 -16 -16 -15 -15 -15 -15 -15 -15 -15 -14 -15 -15 -14 -13 -13 -14 -14 -14 -14 -14 -14 -14 -14 -14 -13 -14 -14 -13 -14 -13 -14 -14 -14 -14 -12
-20 -20 -18 -18 -18 -18 -18 -18 -17 -17 -17 -18 -17 -17 -16 -15 -16 -16 -15 -16 -15 -15 -16 -16 -15 -14 -13 -15 -15 -15 -15 -14 -15 -15 -15 -15 -14 -15 -14 -14 -14 -13 -14 -15 -15 -15 -14
-22 -21 -21 -20 -20 -19 -19 -19 -19 -18 -18 -19 -18 -18 -17 -18 -17 -17 -17 -16 -15 -16 -17 -16 -17 -16 -15 -16 -16 -16 -16 -15 -15 -16 -14 -14 -14 -15 -16 -14 -15 -14 -15 -15 -15 -16 -15
-23 -23 -22 -21 -20 -21 -19 -20 -19 -19 -19 -19 -20 -20 -19 -19 -19 -19 -18 -16 -16 -17 -18 -18 -17 -18 -17 -17 -17 -17 -16 -16 -15 -15 -15 -15 -15 -15 -16 -16 -16 -16 -16 -16 -16 -16 -16
-23 -23 -23 -23 -22 -21 -20 -21 -19 -19 -19 -20 -20 -19 -19 -18 -19 -19 -19 -18 -18 -19 -18 -18 -18 -17 -17 -17 -17 -17 -17 -17 -17 -17 -18 -17 -16 -16 -17 -17 -17 -17 -16 -16 -17 -17 -17
-24 -24 -24 -23 -23 -22 -21 -20 -21 -21 -20 -20 -19 -19 -19 -20 -19 -20 -19 -19 -19 -19 -19 -18 -18 -18 -17 -17 -17 -17 -18 -18 -18 -18 -18 -18 -17 -17 -16 -17 -18 -17 -17 -18 -18 -18 -17
-25 -24 -24 -24 -24 -23 -22 -22 -21 -20 -21 -21 -21 -22 -21 -21 -21 -20 -21 -20 -20 -19 -19 -19 -19 -18 -18 -17 -18 -17 -18 -20 -20 -19 -19 -19 -19 -18 -17 -18 -18 -18 -18 -18 -19 -19 -18
-26 -25 -25 -25 -25 -24 -24 -24 -24 -23 -22 -22 -21 -23 -22 -22 -22 -22 -22 -22 -21 -21 -20 -21 -20 -19 -19 -18 -19 -20 -21 -22 -21 -20 -19 -19 -19 -19 -19 -19 -19 -19 -19 -19 -19 -19 -19
-26 -26 -26 -26 -25 -25 -25 -24 -24 -24 -25 -25 -24 -24 -24 -24 -23 -23 -23 -23 -22 -22 -22 -22 -22 -21 -21 -21 -21 -21 -21 -22 -21 -20 -19 -19 -19 -20 -20 -19 -20 -20 -20 -19 -20 -20 -20
-27 -27 -26 -26 -26 -26 -25 -25 -25 -25 -25 -25 -26 -25 -25 -24 -23 -23 -23 -23 -23 -23 -23 -22 -22 -22 -22 -22 -22 -22 -22 -22 -22 -21 -20 -20 -21 -20 -20 -20 -21 -22 -19 -21 -21 -21 -21
-28 -28 -28 -28 -27 -26 -26 -26 -26 -26 -26 -26 -26 -26 -26 -25 -25 -24 -24 -24 -23 -23 -23 -23 -23 -23 -22 -22 -22 -23 -23 -23 -22 -22 -22 -22 -22 -21 -21 -21 -22 -21 -21 -21 -22 -22 -22
-28 -28 -28 -28 -28 -28 -27 -27 -27 -27 -26 -26 -26 -26 -26 -26 -26 -26 -25 -25 -24 -25 -24 -23 -24 -23 -23 -24 -23 -23 -23 -23 -23 -23 -22 -22 -23 -23 -22 -22 -22 -22 -21 -21 -22 -22 -23
-30 -29 -29 -29 -29 -29 -28 -28 -28 -28 -28 -28 -28 -28 -27 -27 -27 -27 -26 -26 -25 -25 -24 -24 -24 -24 -24 -24 -24 -24 -24 -24 -23 -23 -23 -23 -23 -23 -23 -22 -23 -21 -21 -22 -23 -23 -21
-30 -30 -30 -30 -30 -29 -29 -29 -29 -29 -29 -29 -29 -29 -29 -28 -28 -28 -27 -26 -26 -26 -25 -25 -25 -25 -24 -24 -24 -24 -24 -24 -25 -24 -24 -23 -24 -24 -24 -24 -23 -21 -22 -23 -23 -22 -22
-30 -30 -30 -30 -30 -30 -30 -30 -30 -30 -30 -29 -30 -30 -29 -29 -29 -29 -29 -29 -29 -28 -27 -27 -27 -26 -26 -25 -25 -25 -25 -24 -25 -24 -25 -25 -25 -24 -24 -24 -24 -22 -23 -23 -23 -24 -23
-31 -31 -31 -30 -30 -30 -31 -31 -30 -30 -30 -30 -30 -31 -30 -30 -30 -30 -30 -29 -29 -30 -29 -29 -29 -28 -28 -28 -28 -28 -27 -26 -25 -25 -25 -25 -25 -24 -24 -24 -24 -23 -23 -23 -23 -24 -24

GFSGBSN_500_temp_168.txt.gz
Temp
-11 -11 -11 -11 -10 -11 -10 -10 -10 -10 -9 -9 -9 -9 -9 -9 -9 -9 -9 -9 -8 -9 -8 -8 -8 -8 -8 -8 -9 -8 -8 -8 -8 -8 -9 -9 -9 -9 -9 -9 -9 -9 -8 -8 -8 -9 -9
-11 -11 -11 -12 -11 -11 -11 -10 -10 -10 -10 -9 -9 -9 -9 -9 -9 -9 -9 -9 -9 -9 -8 -8 -8 -8 -8 -8 -9 -8 -8 -8 -9 -9 -9 -9 -9 -10 -9 -9 -9 -9 -8 -8 -9 -9 -9
-12 -11 -12 -13 -12 -12 -12 -11 -11 -11 -10 -10 -10 -9 -9 -9 -9 -9 -10 -9 -9 -9 -9 -9 -8 -8 -8 -9 -9 -9 -9 -9 -9 -9 -9 -10 -10 -11 -10 -10 -10 -9 -8 -8 -9 -9 -9
-11 -12 -13 -13 -13 -13 -12 -12 -11 -11 -11 -11 -11 -10 -10 -9 -9 -9 -9 -10 -10 -10 -9 -9 -8 -8 -8 -9 -10 -10 -9 -9 -10 -10 -10 -11 -11 -11 -11 -11 -10 -10 -8 -8 -10 -9 -9
-12 -11 -12 -13 -13 -12 -13 -12 -12 -12 -12 -11 -12 -11 -11 -10 -11 -10 -10 -10 -10 -11 -10 -9 -9 -9 -8 -9 -9 -9 -10 -10 -10 -10 -10 -11 -11 -11 -11 -10 -10 -10 -9 -9 -8 -9 -9
-12 -12 -12 -12 -12 -12 -12 -13 -12 -12 -12 -12 -12 -12 -12 -12 -12 -11 -11 -10 -10 -10 -10 -10 -9 -9 -9 -9 -9 -10 -10 -10 -10 -10 -10 -11 -11 -10 -10 -10 -10 -10 -9 -9 -9 -10 -9
-12 -12 -12 -12 -12 -12 -12 -12 -12 -13 -13 -13 -12 -12 -13 -12 -12 -12 -12 -12 -11 -11 -10 -10 -10 -9 -9 -10 -9 -10 -10 -10 -10 -10 -10 -11 -10 -9 -10 -11 -10 -9 -9 -9 -9 -11 -9
-13 -13 -13 -13 -12 -12 -12 -12 -12 -12 -12 -13 -12 -13 -13 -12 -12 -12 -12 -13 -12 -12 -11 -11 -10 -9 -10 -10 -10 -10 -11 -10 -10 -10 -11 -10 -9 -10 -10 -10 -10 -10 -9 -9 -9 -10 -10
-14 -13 -13 -13 -13 -13 -12 -12 -12 -12 -12 -13 -13 -13 -13 -13 -13 -13 -13 -13 -13 -13 -12 -10 -10 -10 -11 -11 -10 -9 -12 -11 -10 -10 -11 -10 -10 -11 -10 -10 -10 -10 -10 -10 -10 -11 -10
-14 -14 -14 -14 -13 -13 -13 -13 -13 -13 -13 -13 -13 -13 -13 -13 -13 -13 -14 -14 -14 -13 -13 -10 -11 -10 -11 -11 -10 -11 -11 -11 -10 -10 -11 -10 -10 -10 -11 -11 -11 -11 -12 -11 -11 -11 -10
-15 -15 -14 -13 -14 -14 -13 -13 -13 -13 -13 -14 -14 -13 -13 -13 -13 -13 -14 -14 -13 -13 -13 -12 -11 -10 -10 -11 -10 -10 -11 -11 -11 -12 -12 -10 -11 -11 -11 -11 -12 -11 -12 -12 -12 -11 -11
-15 -15 -15 -14 -13 -13 -13 -14 -13 -14 -15 -15 -15 -14 -14 -13 -14 -14 -14 -14 -14 -15 -13 -12 -12 -12 -12 -12 -12 -11 -12 -12 -12 -12 -12 -11 -12 -11 -11 -12 -12 -12 -12 -12 -12 -12 -12
-17 -16 -16 -15 -15 -14 -14 -13 -13 -14 -14 -14 -14 -14 -14 -14 -14 -14 -15 -15 -15 -15 -14 -13 -12 -12 -13 -12 -13 -13 -13 -13 -13 -13 -13 -13 -12 -13 -12 -12 -13 -13 -14 -13 -13 -13 -11
-17 -17 -16 -16 -16 -16 -15 -15 -15 -15 -15 -16 -15 -15 -15 -14 -14 -14 -15 -16 -16 -14 -14 -15 -14 -13 -13 -13 -13 -13 -13 -13 -13 -13 -13 -13 -13 -13 -13 -12 -13 -14 -14 -13 -13 -12 -12
-19 -18 -17 -17 -17 -16 -16 -16 -16 -16 -17 -16 -16 -16 -15 -15 -15 -15 -16 -17 -14 -14 -14 -15 -15 -15 -14 -14 -13 -14 -14 -13 -12 -13 -13 -13 -13 -13 -13 -13 -13 -13 -14 -14 -14 -14 -14
-22 -21 -20 -18 -18 -17 -17 -16 -17 -17 -17 -17 -17 -17 -17 -17 -17 -17 -18 -17 -15 -15 -15 -14 -15 -15 -15 -15 -15 -15 -14 -14 -13 -13 -13 -14 -14 -13 -13 -13 -14 -14 -15 -15 -15 -15 -15
-21 -22 -21 -20 -20 -20 -18 -18 -18 -18 -18 -18 -18 -18 -18 -18 -19 -18 -19 -17 -17 -16 -16 -16 -16 -16 -16 -16 -16 -15 -15 -15 -15 -14 -15 -15 -14 -14 -14 -14 -15 -14 -14 -15 -16 -16 -16
-23 -22 -22 -21 -22 -21 -21 -21 -20 -20 -20 -20 -20 -19 -19 -20 -20 -18 -19 -19 -18 -17 -17 -17 -18 -18 -17 -18 -18 -17 -16 -16 -16 -16 -16 -16 -16 -15 -16 -16 -16 -16 -16 -16 -17 -16 -15
-24 -23 -23 -22 -22 -22 -21 -20 -21 -21 -21 -21 -21 -21 -20 -21 -19 -20 -21 -20 -20 -19 -19 -19 -19 -19 -19 -19 -17 -17 -17 -17 -17 -17 -17 -16 -17 -16 -16 -18 -17 -17 -17 -17 -17 -17 -17
-24 -24 -24 -23 -24 -23 -22 -21 -21 -21 -21 -22 -21 -21 -21 -20 -20 -20 -21 -20 -20 -20 -19 -19 -20 -20 -20 -19 -19 -19 -17 -17 -17 -18 -17 -18 -18 -17 -16 -18 -19 -18 -18 -18 -18 -18 -18
-24 -24 -24 -24 -24 -24 -24 -23 -23 -23 -23 -22 -21 -21 -22 -22 -22 -22 -21 -21 -21 -21 -21 -21 -20 -19 -19 -20 -19 -18 -18 -18 -18 -18 -18 -19 -18 -19 -18 -18 -19 -20 -19 -18 -18 -18 -19
-25 -25 -25 -25 -24 -24 -24 -24 -24 -24 -24 -24 -24 -22 -23 -22 -23 -23 -23 -22 -22 -22 -22 -22 -22 -21 -21 -21 -19 -19 -19 -18 -18 -18 -18 -19 -18 -19 -20 -20 -19 -20 -20 -18 -18 -18 -19
-26 -26 -26 -26 -26 -25 -25 -25 -24 -24 -24 -24 -24 -26 -26 -26 -25 -24 -24 -24 -23 -23 -22 -22 -22 -22 -22 -22 -22 -20 -19 -20 -20 -20 -20 -20 -20 -20 -21 -21 -21 -22 -18 -20 -19 -19 -20
-27 -27 -27 -27 -26 -26 -26 -26 -26 -25 -25 -25 -25 -26 -26 -25 -26 -26 -26 -24 -24 -24 -23 -23 -23 -23 -22 -22 -22 -22 -21 -22 -21 -21 -22 -21 -21 -22 -21 -22 -22 -21 -21 -20 -20 -20 -21
-28 -28 -28 -28 -28 -27 -27 -26 -26 -26 -26 -26 -26 -26 -27 -26 -26 -26 -26 -26 -25 -24 -25 -24 -24 -23 -23 -23 -22 -22 -22 -22 -22 -22 -22 -22 -22 -22 -22 -22 -22 -22 -21 -21 -21 -21 -21
-29 -29 -29 -29 -28 -28 -28 -28 -28 -28 -27 -26 -26 -26 -27 -28 -27 -27 -27 -26 -26 -25 -25 -25 -25 -25 -24 -24 -24 -23 -23 -23 -22 -22 -22 -22 -22 -23 -22 -23 -23 -22 -21 -22 -22 -22 -21
-30 -30 -29 -29 -29 -29 -29 -29 -29 -28 -28 -28 -28 -28 -28 -28 -29 -29 -28 -27 -27 -26 -26 -27 -26 -25 -24 -25 -25 -24 -24 -24 -24 -23 -23 -23 -23 -23 -23 -23 -23 -22 -22 -23 -23 -22 -22
-31 -30 -30 -30 -30 -30 -30 -30 -30 -29 -29 -29 -29 -29 -29 -29 -30 -29 -29 -29 -28 -28 -28 -27 -27 -26 -26 -26 -25 -25 -24 -24 -24 -24 -24 -24 -24 -24 -24 -23 -24 -23 -23 -23 -23 -23 -23
-32 -32 -31 -31 -30 -30 -30 -30 -30 -30 -30 -30 -30 -30 -30 -30 -30 -30 -30 -30 -30 -29 -29 -29 -28 -28 -28 -28 -28 -27 -26 -25 -25 -24 -25 -24 -24 -24 -25 -24 -24 -24 -23 -24 -23 -23 -23